Location: Oshawa
(43.9000°N, 78.8670°W)
Time: 23:29:02
(UTC-04:00)

Cosmos 1821 Rocket - Visible Passes

Search period start: 22 June 2017 00:00
Search period end: 02 July 2017 00:00
Orbit: 946 x 1004 km, 82.9° (Epoch: 22 June)

Date Brightness Start Highest point End Pass type
(mag) Time Alt. Az. Time Alt. Az. Time Alt. Az.
22 Jun 6.2 22:19:33 10° NNW 22:24:25 23° W 22:29:15 10° SW visible
23 Jun 6.7 22:46:36 10° NW 22:49:12 13° WNW 22:51:48 10° WSW visible
25 Jun 6.1 21:49:53 10° NNW 21:55:06 27° W 22:00:17 10° SW visible
26 Jun 6.6 22:16:30 10° NW 22:19:56 15° WNW 22:23:21 10° WSW visible
29 Jun 6.6 21:46:35 10° NW 21:50:39 18° W 21:54:41 10° WSW visible
